Regional Weather Roundup
Issued by NWS Charleston, SC

Current Version | Previous Version | Graphics & Text | Print | Product List | Glossary On
Versions: 1 2 3 4 5 6 7 8 9 10 11 12 13 14 15 16 17 18 19 20 21 22 23 24 25 26 27 28 29 30 31 32 33 34 35 36 37 38 39 40 41 42 43 44 45 46 47 48 49 50
352 ASUS42 KCHS 241828 RWRCHS REGIONAL WEATHER ROUNDUP NATIONAL WEATHER SERVICE CHARLESTON SC 200 PM EDT SUN JUL 24 2016 NOTE: "FAIR" INDICATES FEW OR NO CLOUDS BELOW 12,000 FEET WITH NO SIGNIFICANT WEATHER AND/OR OBSTRUCTIONS TO VISIBILITY. NOT ALL STATIONS ARE QUALITY CONTROLLED. USE DATA WITH CAUTION... ESPECIALLY DEWPOINT OBSERVATIONS. SCZ027-030-031-034>040-042>050-241900- ...SOUTHEAST SOUTH CAROLINA... CITY SKY/WX TMP DP RH WIND PRES REMARKS N CHARLESTON MOSUNNY 93 74 53 VRB3 30.03F HX 103 6HR MIN TEMP: 82; 6HR MAX TEMP: 94; WATERFRONT PRK N/A 89 78 70 SW5 30.02F HX 103 MOUNT PLEASANT FAIR 88 79 74 S12 30.03F HX 102 JOHNS ISLAND FAIR 91 77 62 S10 30.03F HX 105 PINOPOLIS N/A 88 75 66 VRB3 29.97F HX 97 MONCKS CORNER FAIR 86 73 66 SE5 30.02F HX 93 SUMMERVILLE FAIR 95 73 49 W5 30.03F HX 105 BEAUFORT MCAS PTSUNNY 95 74 50 CALM 30.03F HX 105 6HR MIN TEMP: 82; 6HR MAX TEMP: 96; BEAUFORT ARPT FAIR 91 75 59 SW5 30.03F HX 102 HILTON HEAD IS MOSUNNY 97 77 52 S6 30.05S HX 112 WALTERBORO PTCLDY 95 70 43 SW3 30.03F HX 101 ALLENDALE FAIR 95 68 41 CALM 30.01F HX 99 ...SOUTHERN MIDLANDS AND PEE DEE... CITY SKY/WX TMP DP RH WIND PRES REMARKS GEORGETOWN MOCLDY 86 72 62 S10 30.05R HX 92 KINGSTREE FAIR 93 70 46 S3 30.02F HX 99 ORANGEBURG SUNNY 95 70 44 VRB6 30.03F HX 101 6HR MIN TEMP: 77; 6HR MAX TEMP: 95; BARNWELL NOT AVBL AIKEN MOCLDY 93 70 46 SW9 30.06F HX 99 MANNING FAIR 91 73 55 W5 30.02F HX 100 COLUMBIA PTSUNNY 98 68 37 VRB3 30.01F HX 103 6HR MIN TEMP: 79; 6HR MAX TEMP: 98; SUMTER MOSUNNY 95 73 48 SW9 30.00F HAZE HX 104 6HR MIN TEMP: 78; 6HR MAX TEMP: 95; FLORENCE MOSUNNY 94 72 48 SW8 30.03F HX 102 6HR MIN TEMP: 80; 6HR MAX TEMP: 94; MYRTLE BEACH MOSUNNY 90 73 58 S15 30.05F HX 98 N MYRTLE BEACH SUNNY 88 78 72 S13 30.04S HX 101 6HR MIN TEMP: 84; 6HR MAX TEMP: 88; $$ GAZ063-065-086>088-099>101-113>116-118-119-134>141-150-241900- ...SOUTHEAST GEORGIA... CITY SKY/WX TMP DP RH WIND PRES REMARKS SAVANNAH ARPT PTSUNNY 94 69 44 NE6 30.03F HX 99 6HR MIN TEMP: 80; 6HR MAX TEMP: 95; HUNTER AAF PTSUNNY 92 77 62 VRB3 30.01S HX 105 6HR MIN TEMP: 81; 6HR MAX TEMP: 94; FORT STEWART PTSUNNY 93 70 46 CALM 30.00F HX 99 6HR MIN TEMP: 78; 6HR MAX TEMP: 96; STATESBORO SUNNY 95 73 48 SW3 30.03F HX 105 SYLVANIA NOT AVBL CLAXTON FAIR 97 70 41 CALM 30.02F HX 104 ...CSRA...CENTRAL AND FAR SOUTHEAST GEORGIA... CITY SKY/WX TMP DP RH WIND PRES REMARKS THOMSON MOSUNNY 98 71 41 W7 30.07F HX 107 AUGUSTA-BUSH PTSUNNY 97 71 42 CALM 30.01F HX 104 6HR MIN TEMP: 76; 6HR MAX TEMP: 98; AUGUSTA-DANIEL PTSUNNY 94 70 45 SW7 30.04F HX 100 SWAINSBORO MOCLDY 95 66 38 NW6 30.03F HX 98 VIDALIA PTSUNNY 95 68 41 W3 30.03F HX 99 EASTMAN FAIR 96 54 24 W5 30.05F HX 93 HAZLEHURST FAIR 97 68 38 CALM 30.02F HX 102 ALMA SUNNY 95 69 42 VRB6 30.03F HX 100 6HR MIN TEMP: 76; 6HR MAX TEMP: 95; WAYCROSS PTSUNNY 97 73 46 CALM 30.02F HX 107 JESUP MOCLDY 97 73 46 SW3 30.02F HX 107 BAXLEY FAIR 97 72 44 S6 30.03F HX 105 BRUNSWICK MOSUNNY 93 75 55 SE8 30.03F HX 104 SAINT SIMONS SUNNY 91 74 57 S10 30.04S HX 100 6HR MIN TEMP: 80; 6HR MAX TEMP: 92; $$ SCZ027-028-034-036>038-045-046-048>050-GAZ119-141-241900- ...LAKE AND SUPPLEMENTAL COASTAL OBSERVATIONS... STATION/POSITION TIME TEMP WIND PRES WAVE SWELL AIR SEA DIR/SP/G HT/PER HT/PER/DIR (UTC) (F) (DEG/KT/KT) (MB) (FT/S) (FT/S/D) WINYAH BAY 1745 86 150/ 11 1016.0F LAKE MURRAY 1700 90 190/ 5/ 7 1016.6F ACE BASIN NERRS 1700 91 220/ 1 1017.0F FORT PULASKI 1800 89 87 150/ 6/ 9 1017.6F SAPELO ISLAND 1800 93 180/ 8 1017.0S $$ ANZ835-935-AMZ111-154-330-350-352-354-370-450-454-472-241900- ...C-MAN AND BUOY OBSERVATIONS... STATION/POSITION TIME TEMP WIND PRES WAVE SWELL AIR SEA DIR/SP/G HT/PER HT/PER/DIR (UTC) (F) (DEG/KT/KT) (MB) (FT/S) (FT/S/D) BUOY 41004 1750 85 86 250/ 8/ 8 1017.6S 3/ 8 2/120/ 8 BUOY 41008 1750 85 87 200/ 6/ 8 1017.5R 2/ 9 2/120/ 9 FOLLY BEACH CMAN 1800 86 200/ 11/ 13 1017.6F CAPERS NEARSHORE 1808 84 84 210/ 12/ 16 1017.3F FRIPP NEARSHORE 1808 86 87 200/ 8/ 10 1016.8F STATION/POSITION TIME TEMP WIND PRES WAVE SWELL AIR SEA DIR/SP/G HT/PER HT/PER/DIR (UTC) (F) (DEG/KT/KT) (MB) (FT/S) (FT/S/D) 5E ST. MARYS GA 1801 88 N/A 2/ 9 FRYING PAN BUOY 1800 84 86 220/ 6/ 8 1017.5S BUOY 41025 1750 85 86 230/ 12/ 14 1017.4F 2/ 8 2/130/ 8 CAPE LOOKOUT NC 1800 87 230/ 8/ 11 1017.2S BUOY 41002 1750 83 86 170/ 4/ 6 1018.8S 2/ 8 2/ 70/ 8 BUOY 41010 1720 84 88 50/ 4/ 6 1018.3F ST AUGUSTINE FL 1800 83 86 120/ 11/ 12 1018.6F $$

USA.gov is the U.S. government's official web portal to all federal, state and local government web resources and services.